Location: Dürabuch
(48.2640°N, 11.2185°E)
Time: 03:21:36
(UTC+00:00)

Cosmos 2151 Rocket - Pass Details

Date: 23 May 2024
Orbit: 614 x 639 km, 82.5° (Epoch: 13 June)

Event Time Altitude Azimuth Distance (km) Brightness Sun altitude
Rises 02:34:25 0° 345° (NNW) 2,943 7.5 -7.6°
Reaches altitude 10° 02:36:43 10° 340° (NNW) 2,026 6.5 -7.3°
Maximum altitude 02:41:03 49° 267° (W) 815 3.9 -6.8°
Drops below altitude 10° 02:45:19 10° 192° (SSW) 1,994 5.7 -6.2°
Sets 02:47:34 0° 187° (S) 2,892 6.5 -5.9°
